Regional Weather Roundup
Issued by NWS Green Bay, WI

Home | Current Version | Previous Version | Text Only | Print | Product List | Glossary On
Versions: 1 2 3 4 5 6 7 8 9 10 11 12 13 14 15 16 17 18 19 20 21 22 23 24 25 26 27 28 29 30 31 32 33 34 35 36 37 38 39 40 41 42 43 44 45 46 47 48 49 50
000
ASUS43 KGRB 301859
RWRGRB

NORTH-CENTRAL AND NORTHEAST WISCONSIN REGIONAL WEATHER ROUNDUP
NATIONAL WEATHER SERVICE GREEN BAY WI
200 PM CDT SAT AUG 30 2014

WIZ005-009-010>012-018-019-302000-
NORTH CENTRAL WISCONSIN

CITY           SKY/WX    TMP DP  RH WIND       PRES   REMARKS
IRONWOOD       NOT AVBL
MANITOWISH WTR NOT AVBL
ARBOR VITAE    NOT AVBL
EAGLE RIVER    NOT AVBL
LAND O LAKES   NOT AVBL
RHINELANDER    CLOUDY    63  61  93 N8        29.83R
PHILLIPS       NOT AVBL
ANTIGO         NOT AVBL
TOMAHAWK       NOT AVBL
MERRILL        NOT AVBL
$$

WIZ013-073-302000-
NORTHEAST WISCONSIN

CITY           SKY/WX    TMP DP  RH WIND       PRES   REMARKS
IRON MOUNTAIN  CLOUDY    71  65  81 NW9       29.75S
MARINETTE      CLOUDY    72  66  83 N7        29.72S
$$

WIZ017-030-035>037-045-302000-
CENTRAL WISCONSIN

CITY           SKY/WX    TMP DP  RH WIND       PRES   REMARKS
MEDFORD        NOT AVBL
WAUSAU         CLOUDY    73  64  73 NW9       29.78R
MOSINEE        NOT AVBL
MARSHFIELD     CLOUDY    75  65  70 NW7       29.80S
WISC RAPIDS    PTSUNNY   75  67  76 W6        29.81R
STEVENS POINT  NOT AVBL
WAUPACA        NOT AVBL
SHAWANO        NOT AVBL
CLINTONVILLE   NOT AVBL
$$

WIZ038-039-048-051-302000-
FOX VALLEY

CITY           SKY/WX    TMP DP  RH WIND       PRES   REMARKS
NWS GREEN BAY  PTSUNNY   77  68  73 W8        29.75S
APPLETON       PTSUNNY   75  63  64 W9        29.77S
OSHKOSH        CLOUDY    73  67  81 NW6       29.77R
FOND DU LAC    RAIN      71  67  87 SW5       29.78S FOG
$$

WIZ022-050-052-302000-
EAST CENTRAL WISCONSIN

CITY           SKY/WX    TMP DP  RH WIND       PRES   REMARKS
STURGEON BAY   PTSUNNY   73  66  78 SW12      29.74S
MANITOWOC      NOT AVBL
SHEBOYGAN      MOSUNNY   78  68  71 SW10      29.77S
$$

LMZ563-521-522-541>543-302000-
LAKESHORE

STATION/POSITION TIME  TEMP    WIND        PRES    VSBY  WAVE
                       AIR SEA DIR/SP/G                  HT/PER
                 (UTC) (F)     (DEG/KT/KT) (MB)    (MI)  (FT/S)
SHEBOYGAN LKSHOR 1800   72 58  240/  7/ 13 1007.6F
KEWAUNEE LKSHORE 1800   67     170/ 11/ 13 1006.2S
TWO RIVERS CG    1800      73              1007.7      6   1
NORTHPORT PIER   1800   69     180/  5/  6 1006.8S
N MID LAKE BUOY  1800   67 65  190/ 16/ 17 1006.4F         4/ 6
S GREEN BAY BUOY 1800   70     VRB 12/ 16  1007.9R
SISTER BAY LKSHO 1800   69     180/  6/  7   N/A
STURGEON BAY CG  1800   67 66  200/ 13     1007.7   3 1/2  2
CHAMBERS ISLAND  1800   70     320/  5/  7 1006.8S
MENOMINEE LKSHOR 1800   67     330/  7/  9 1007.3R
$$



USA.gov is the U.S. government's official web portal to all federal, state and local government web resources and services.